Time,TemperatureF,DewpointF,PressureIn,WindDirection,WindDirectionDegrees,WindSpeedMPH,WindSpeedGustMPH,Humidity,HourlyPrecipIn,Conditions,Clouds,dailyrainin,SoftwareType,DateUTC
2013-06-13 01:32:00,56.0,13.0,29.75,SW,230,1.0,2.0,18,0.00,,,-99.99,,2013-06-13 08:32:00,
2013-06-13 05:22:00,55.0,24.0,29.73,WSW,240,2.0,4.0,30,0.00,,,-99.99,,2013-06-13 12:22:00,
2013-06-13 07:43:00,59.0,22.0,29.76,WSW,250,2.0,5.0,24,0.00,,,-99.99,,2013-06-13 14:43:00,
2013-06-13 08:33:00,64.0,21.0,29.77,SSE,150,3.0,4.0,19,0.00,,,-99.99,,2013-06-13 15:33:00,
2013-06-13 08:43:00,64.0,21.0,29.77,SSE,150,3.0,4.0,19,0.00,,,-99.99,,2013-06-13 15:43:00,
2013-06-13 09:33:00,71.0,21.0,29.78,ESE,110,2.0,3.0,15,0.00,,,-99.99,,2013-06-13 16:33:00,
2013-06-13 09:43:00,71.0,21.0,29.78,ESE,110,2.0,3.0,15,0.00,,,-99.99,,2013-06-13 16:43:00,
2013-06-13 10:32:00,74.0,18.0,29.79,SW,220,1.0,3.0,12,0.00,,,-99.99,,2013-06-13 17:32:00,
2013-06-13 10:43:00,74.0,18.0,29.79,SW,220,1.0,3.0,12,0.00,,,-99.99,,2013-06-13 17:43:00,
2013-06-13 12:22:00,79.0,-2.0,29.80,West,270,1.0,5.0,4,0.00,,,-99.99,,2013-06-13 19:22:00,
2013-06-13 13:22:00,79.0,10.0,29.79,WSW,240,2.0,7.0,7,0.00,,,-99.99,,2013-06-13 20:22:00,
2013-06-13 13:32:00,79.0,10.0,29.79,WSW,240,2.0,7.0,7,0.00,,,-99.99,,2013-06-13 20:32:00,
2013-06-13 13:43:00,79.0,10.0,29.79,WSW,240,2.0,7.0,7,0.00,,,-99.99,,2013-06-13 20:43:00,
2013-06-13 14:34:00,79.0,6.0,29.79,SSW,210,2.0,4.0,6,0.00,,,-99.99,,2013-06-13 21:34:00,
2013-06-13 14:43:00,79.0,6.0,29.79,SSW,210,2.0,4.0,6,0.00,,,-99.99,,2013-06-13 21:43:00,
2013-06-13 16:22:00,76.0,13.0,29.76,WSW,240,4.0,5.0,9,0.00,,,-99.99,,2013-06-13 23:22:00,
2013-06-13 16:32:00,76.0,13.0,29.76,WSW,240,4.0,5.0,9,0.00,,,-99.99,,2013-06-13 23:32:00,
2013-06-13 16:43:00,76.0,13.0,29.76,WSW,240,4.0,5.0,9,0.00,,,-99.99,,2013-06-13 23:43:00,
2013-06-13 17:43:00,72.0,17.0,29.75,WSW,240,3.0,6.0,12,0.00,,,-99.99,,2013-06-14 00:43:00,
2013-06-13 18:32:00,71.0,16.0,29.75,WSW,240,3.0,6.0,12,0.00,,,-99.99,,2013-06-14 01:32:00,
2013-06-13 18:43:00,71.0,16.0,29.75,WSW,240,3.0,6.0,12,0.00,,,-99.99,,2013-06-14 01:43:00,
2013-06-13 19:32:00,66.0,25.0,29.74,WSW,240,2.0,4.0,21,0.00,,,-99.99,,2013-06-14 02:32:00,
2013-06-13 19:43:00,66.0,25.0,29.74,WSW,240,2.0,4.0,21,0.00,,,-99.99,,2013-06-14 02:43:00,
2013-06-13 20:22:00,62.0,18.0,29.74,North,0,0.0,3.0,18,0.00,,,-99.99,,2013-06-14 03:22:00,
2013-06-13 20:34:00,62.0,18.0,29.74,North,0,0.0,3.0,18,0.00,,,-99.99,,2013-06-14 03:34:00,
2013-06-13 20:43:00,62.0,18.0,29.74,North,0,0.0,3.0,18,0.00,,,-99.99,,2013-06-14 03:43:00,
2013-06-13 21:22:00,58.0,11.0,29.75,SW,230,2.0,2.0,15,0.00,,,-99.99,,2013-06-14 04:22:00,